﻿測定場所 (Monitoring sites),日付 (Measurement date),時間 (Measurement time),線量率 最大値 (max) μGy/h,線量率 最小値 (min) μGy/h,線量率 平均値 (average) μGy/h,
江戸川 (Edogawa),2015-08-16,23:01～24:00,0.0670,0.0592,0.0631,
江戸川 (Edogawa),2015-08-16,22:01～23:00,0.0665,0.0590,0.0627,
江戸川 (Edogawa),2015-08-16,21:01～22:00,0.0662,0.0588,0.0626,
江戸川 (Edogawa),2015-08-16,20:01～21:00,0.0649,0.0603,0.0623,
江戸川 (Edogawa),2015-08-16,19:01～20:00,0.0657,0.0598,0.0629,
江戸川 (Edogawa),2015-08-16,18:01～19:00,0.0662,0.0603,0.0628,
江戸川 (Edogawa),2015-08-16,17:01～18:00,0.0658,0.0597,0.0627,
江戸川 (Edogawa),2015-08-16,16:01～17:00,0.0665,0.0591,0.0628,
江戸川 (Edogawa),2015-08-16,15:01～16:00,0.0669,0.0591,0.0628,
江戸川 (Edogawa),2015-08-16,14:01～15:00,0.0658,0.0588,0.0628,
江戸川 (Edogawa),2015-08-16,13:01～14:00,0.0663,0.0599,0.0625,
江戸川 (Edogawa),2015-08-16,12:01～13:00,0.0669,0.0586,0.0627,
江戸川 (Edogawa),2015-08-16,11:01～12:00,0.0658,0.0593,0.0627,
江戸川 (Edogawa),2015-08-16,10:01～11:00,0.0656,0.0591,0.0624,
江戸川 (Edogawa),2015-08-16,09:01～10:00,0.0665,0.0603,0.0628,
江戸川 (Edogawa),2015-08-16,08:01～09:00,0.0662,0.0594,0.0623,
江戸川 (Edogawa),2015-08-16,07:01～08:00,0.0672,0.0597,0.0627,
江戸川 (Edogawa),2015-08-16,06:01～07:00,0.0656,0.0595,0.0625,
江戸川 (Edogawa),2015-08-16,05:01～06:00,0.0673,0.0600,0.0629,
江戸川 (Edogawa),2015-08-16,04:01～05:00,0.0663,0.0595,0.0626,
江戸川 (Edogawa),2015-08-16,03:01～04:00,0.0663,0.0598,0.0635,
江戸川 (Edogawa),2015-08-16,02:01～03:00,0.0671,0.0601,0.0633,
江戸川 (Edogawa),2015-08-16,01:01～02:00,0.0665,0.0601,0.0633,
江戸川 (Edogawa),2015-08-16,00:01～01:00,0.0663,0.0596,0.0626,
江戸川 (Edogawa),2015-08-15,23:01～24:00,0.0671,0.0591,0.0625,
江戸川 (Edogawa),2015-08-15,22:01～23:00,0.0666,0.0595,0.0631,
江戸川 (Edogawa),2015-08-15,21:01～22:00,0.0667,0.0592,0.0628,
江戸川 (Edogawa),2015-08-15,20:01～21:00,0.0661,0.0579,0.0629,
江戸川 (Edogawa),2015-08-15,19:01～20:00,0.0659,0.0602,0.0631,
江戸川 (Edogawa),2015-08-15,18:01～19:00,0.0657,0.0598,0.0626,
江戸川 (Edogawa),2015-08-15,17:01～18:00,0.0658,0.0599,0.0628,
江戸川 (Edogawa),2015-08-15,16:01～17:00,0.0650,0.0584,0.0627,
江戸川 (Edogawa),2015-08-15,15:01～16:00,0.0663,0.0593,0.0629,
江戸川 (Edogawa),2015-08-15,14:01～15:00,0.0658,0.0578,0.0625,
江戸川 (Edogawa),2015-08-15,13:01～14:00,0.0663,0.0593,0.0625,
江戸川 (Edogawa),2015-08-15,12:01～13:00,0.0665,0.0592,0.0622,
江戸川 (Edogawa),2015-08-15,11:01～12:00,0.0657,0.0588,0.0626,
江戸川 (Edogawa),2015-08-15,10:01～11:00,0.0651,0.0561,0.0617,
江戸川 (Edogawa),2015-08-15,09:01～10:00,0.0652,0.0588,0.0618,
江戸川 (Edogawa),2015-08-15,08:01～09:00,0.0650,0.0587,0.0617,
江戸川 (Edogawa),2015-08-15,07:01～08:00,0.0648,0.0570,0.0612,
江戸川 (Edogawa),2015-08-15,06:01～07:00,0.0647,0.0588,0.0617,
江戸川 (Edogawa),2015-08-15,05:01～06:00,0.0668,0.0577,0.0619,
江戸川 (Edogawa),2015-08-15,04:01～05:00,0.0670,0.0595,0.0634,
江戸川 (Edogawa),2015-08-15,03:01～04:00,0.0685,0.0574,0.0628,
江戸川 (Edogawa),2015-08-15,02:01～03:00,0.0657,0.0589,0.0616,
江戸川 (Edogawa),2015-08-15,01:01～02:00,0.0644,0.0562,0.0611,
江戸川 (Edogawa),2015-08-15,00:01～01:00,0.0649,0.0586,0.0617,
江戸川 (Edogawa),2015-08-14,23:01～24:00,0.0643,0.0587,0.0619,
江戸川 (Edogawa),2015-08-14,22:01～23:00,0.0665,0.0583,0.0627,
江戸川 (Edogawa),2015-08-14,21:01～22:00,0.0700,0.0603,0.0652,
江戸川 (Edogawa),2015-08-14,20:01～21:00,0.0829,0.0651,0.0732,
江戸川 (Edogawa),2015-08-14,19:01～20:00,0.0891,0.0633,0.0775,
江戸川 (Edogawa),2015-08-14,18:01～19:00,0.0685,0.0597,0.0646,
江戸川 (Edogawa),2015-08-14,17:01～18:00,0.0681,0.0607,0.0645,
江戸川 (Edogawa),2015-08-14,16:01～17:00,0.0689,0.0606,0.0648,
江戸川 (Edogawa),2015-08-14,15:01～16:00,0.0693,0.0598,0.0651,
江戸川 (Edogawa),2015-08-14,14:01～15:00,0.0687,0.0608,0.0643,
江戸川 (Edogawa),2015-08-14,13:01～14:00,0.0677,0.0616,0.0644,
江戸川 (Edogawa),2015-08-14,12:01～13:00,0.0678,0.0611,0.0643,
江戸川 (Edogawa),2015-08-14,11:01～12:00,0.0682,0.0600,0.0645,
江戸川 (Edogawa),2015-08-14,10:01～11:00,0.0673,0.0608,0.0642,
江戸川 (Edogawa),2015-08-14,09:01～10:00,0.0671,0.0610,0.0643,
江戸川 (Edogawa),2015-08-14,08:01～09:00,0.0697,0.0616,0.0644,
江戸川 (Edogawa),2015-08-14,07:01～08:00,0.0688,0.0608,0.0640,
江戸川 (Edogawa),2015-08-14,06:01～07:00,0.0685,0.0614,0.0644,
江戸川 (Edogawa),2015-08-14,05:01～06:00,0.0694,0.0609,0.0647,
江戸川 (Edogawa),2015-08-14,04:01～05:00,0.0677,0.0609,0.0640,
江戸川 (Edogawa),2015-08-14,03:01～04:00,0.0672,0.0598,0.0637,
江戸川 (Edogawa),2015-08-14,02:01～03:00,0.0678,0.0603,0.0647,
江戸川 (Edogawa),2015-08-14,01:01～02:00,0.0678,0.0608,0.0640,
江戸川 (Edogawa),2015-08-14,00:01～01:00,0.0687,0.0604,0.0641,
江戸川 (Edogawa),2015-08-13,23:01～24:00,0.0678,0.0616,0.0642,
江戸川 (Edogawa),2015-08-13,22:01～23:00,0.0681,0.0610,0.0641,
江戸川 (Edogawa),2015-08-13,21:01～22:00,0.0670,0.0607,0.0638,
江戸川 (Edogawa),2015-08-13,20:01～21:00,0.0672,0.0606,0.0638,
江戸川 (Edogawa),2015-08-13,19:01～20:00,0.0675,0.0609,0.0637,
江戸川 (Edogawa),2015-08-13,18:01～19:00,0.0687,0.0608,0.0646,
江戸川 (Edogawa),2015-08-13,17:01～18:00,0.0672,0.0606,0.0640,
江戸川 (Edogawa),2015-08-13,16:01～17:00,0.0673,0.0597,0.0639,
江戸川 (Edogawa),2015-08-13,15:01～16:00,0.0670,0.0603,0.0636,
江戸川 (Edogawa),2015-08-13,14:01～15:00,0.0690,0.0606,0.0636,
江戸川 (Edogawa),2015-08-13,13:01～14:00,0.0674,0.0604,0.0637,
江戸川 (Edogawa),2015-08-13,12:01～13:00,0.0672,0.0612,0.0638,
江戸川 (Edogawa),2015-08-13,11:01～12:00,0.0683,0.0620,0.0648,
江戸川 (Edogawa),2015-08-13,10:01～11:00,0.0724,0.0628,0.0670,
江戸川 (Edogawa),2015-08-13,09:01～10:00,0.0736,0.0653,0.0697,
江戸川 (Edogawa),2015-08-13,08:01～09:00,0.0774,0.0622,0.0688,
江戸川 (Edogawa),2015-08-13,07:01～08:00,0.0689,0.0624,0.0657,
江戸川 (Edogawa),2015-08-13,06:01～07:00,0.0683,0.0600,0.0649,
江戸川 (Edogawa),2015-08-13,05:01～06:00,0.0695,0.0611,0.0647,
江戸川 (Edogawa),2015-08-13,04:01～05:00,0.0672,0.0618,0.0645,
江戸川 (Edogawa),2015-08-13,03:01～04:00,0.0680,0.0605,0.0642,
江戸川 (Edogawa),2015-08-13,02:01～03:00,0.0678,0.0613,0.0643,
江戸川 (Edogawa),2015-08-13,01:01～02:00,0.0677,0.0596,0.0643,
江戸川 (Edogawa),2015-08-13,00:01～01:00,0.0675,0.0592,0.0642,
江戸川 (Edogawa),2015-08-12,23:01～24:00,0.0672,0.0605,0.0641,
江戸川 (Edogawa),2015-08-12,22:01～23:00,0.0679,0.0598,0.0641,
江戸川 (Edogawa),2015-08-12,21:01～22:00,0.0681,0.0610,0.0640,
江戸川 (Edogawa),2015-08-12,20:01～21:00,0.0690,0.0591,0.0641,
江戸川 (Edogawa),2015-08-12,19:01～20:00,0.0676,0.0598,0.0640,
江戸川 (Edogawa),2015-08-12,18:01～19:00,0.0688,0.0599,0.0638,
江戸川 (Edogawa),2015-08-12,17:01～18:00,0.0675,0.0591,0.0636,
江戸川 (Edogawa),2015-08-12,16:01～17:00,0.0681,0.0608,0.0639,
江戸川 (Edogawa),2015-08-12,15:01～16:00,0.0670,0.0592,0.0637,
江戸川 (Edogawa),2015-08-12,14:01～15:00,0.0666,0.0604,0.0638,
江戸川 (Edogawa),2015-08-12,13:01～14:00,0.0683,0.0595,0.0643,
江戸川 (Edogawa),2015-08-12,12:01～13:00,0.0701,0.0604,0.0639,
江戸川 (Edogawa),2015-08-12,11:01～12:00,0.0680,0.0595,0.0639,
江戸川 (Edogawa),2015-08-12,10:01～11:00,0.0678,0.0590,0.0636,
江戸川 (Edogawa),2015-08-12,09:01～10:00,0.0667,0.0612,0.0638,
江戸川 (Edogawa),2015-08-12,08:01～09:00,0.0667,0.0599,0.0633,
江戸川 (Edogawa),2015-08-12,07:01～08:00,0.0670,0.0597,0.0635,
江戸川 (Edogawa),2015-08-12,06:01～07:00,0.0662,0.0590,0.0629,
江戸川 (Edogawa),2015-08-12,05:01～06:00,0.0678,0.0592,0.0633,
江戸川 (Edogawa),2015-08-12,04:01～05:00,0.0660,0.0592,0.0630,
江戸川 (Edogawa),2015-08-12,03:01～04:00,0.0701,0.0583,0.0630,
江戸川 (Edogawa),2015-08-12,02:01～03:00,0.0661,0.0602,0.0632,
江戸川 (Edogawa),2015-08-12,01:01～02:00,0.0674,0.0590,0.0631,
江戸川 (Edogawa),2015-08-12,00:01～01:00,0.0663,0.0594,0.0631,
江戸川 (Edogawa),2015-08-11,23:01～24:00,0.0679,0.0600,0.0629,
江戸川 (Edogawa),2015-08-11,22:01～23:00,0.0662,0.0597,0.0631,
江戸川 (Edogawa),2015-08-11,21:01～22:00,0.0660,0.0592,0.0631,
江戸川 (Edogawa),2015-08-11,20:01～21:00,0.0672,0.0589,0.0633,
江戸川 (Edogawa),2015-08-11,19:01～20:00,0.0656,0.0593,0.0629,
江戸川 (Edogawa),2015-08-11,18:01～19:00,0.0662,0.0591,0.0628,
江戸川 (Edogawa),2015-08-11,17:01～18:00,0.0668,0.0585,0.0626,
江戸川 (Edogawa),2015-08-11,16:01～17:00,0.0666,0.0589,0.0630,
江戸川 (Edogawa),2015-08-11,15:01～16:00,0.0675,0.0597,0.0629,
江戸川 (Edogawa),2015-08-11,14:01～15:00,0.0658,0.0598,0.0628,
江戸川 (Edogawa),2015-08-11,13:01～14:00,0.0668,0.0595,0.0628,
江戸川 (Edogawa),2015-08-11,12:01～13:00,0.0660,0.0596,0.0629,
江戸川 (Edogawa),2015-08-11,11:01～12:00,0.0659,0.0601,0.0630,
江戸川 (Edogawa),2015-08-11,10:01～11:00,0.0653,0.0594,0.0624,
江戸川 (Edogawa),2015-08-11,09:01～10:00,0.0667,0.0584,0.0622,
江戸川 (Edogawa),2015-08-11,08:01～09:00,0.0651,0.0591,0.0623,
江戸川 (Edogawa),2015-08-11,07:01～08:00,0.0666,0.0599,0.0627,
江戸川 (Edogawa),2015-08-11,06:01～07:00,0.0652,0.0598,0.0622,
江戸川 (Edogawa),2015-08-11,05:01～06:00,0.0655,0.0589,0.0622,
江戸川 (Edogawa),2015-08-11,04:01～05:00,0.0661,0.0594,0.0624,
江戸川 (Edogawa),2015-08-11,03:01～04:00,0.0662,0.0588,0.0622,
江戸川 (Edogawa),2015-08-11,02:01～03:00,0.0653,0.0584,0.0620,
江戸川 (Edogawa),2015-08-11,01:01～02:00,0.0660,0.0594,0.0622,
江戸川 (Edogawa),2015-08-11,00:01～01:00,0.0653,0.0574,0.0620,
江戸川 (Edogawa),2015-08-10,23:01～24:00,0.0644,0.0575,0.0615,
江戸川 (Edogawa),2015-08-10,22:01～23:00,0.0659,0.0585,0.0620,
江戸川 (Edogawa),2015-08-10,21:01～22:00,0.0658,0.0582,0.0620,
江戸川 (Edogawa),2015-08-10,20:01～21:00,0.0644,0.0569,0.0615,
江戸川 (Edogawa),2015-08-10,19:01～20:00,0.0652,0.0583,0.0622,
江戸川 (Edogawa),2015-08-10,18:01～19:00,0.0646,0.0586,0.0617,
江戸川 (Edogawa),2015-08-10,17:01～18:00,0.0657,0.0590,0.0617,
江戸川 (Edogawa),2015-08-10,16:01～17:00,0.0662,0.0586,0.0623,
江戸川 (Edogawa),2015-08-10,15:01～16:00,0.0662,0.0588,0.0620,
江戸川 (Edogawa),2015-08-10,14:01～15:00,0.0673,0.0607,0.0634,
江戸川 (Edogawa),2015-08-10,13:01～14:00,0.0683,0.0620,0.0652,
江戸川 (Edogawa),2015-08-10,12:01～13:00,0.0704,0.0615,0.0653,
江戸川 (Edogawa),2015-08-10,11:01～12:00,0.0702,0.0627,0.0658,
江戸川 (Edogawa),2015-08-10,10:01～11:00,0.0699,0.0628,0.0660,
江戸川 (Edogawa),2015-08-10,09:01～10:00,0.0701,0.0626,0.0660,
江戸川 (Edogawa),2015-08-10,08:01～09:00,0.0695,0.0634,0.0663,
江戸川 (Edogawa),2015-08-10,07:01～08:00,0.0707,0.0631,0.0662,
江戸川 (Edogawa),2015-08-10,06:01～07:00,0.0698,0.0607,0.0663,
江戸川 (Edogawa),2015-08-10,05:01～06:00,0.0718,0.0628,0.0665,
江戸川 (Edogawa),2015-08-10,04:01～05:00,0.0701,0.0633,0.0666,
江戸川 (Edogawa),2015-08-10,03:01～04:00,0.0717,0.0629,0.0664,
江戸川 (Edogawa),2015-08-10,02:01～03:00,0.0695,0.0618,0.0661,
江戸川 (Edogawa),2015-08-10,01:01～02:00,0.0687,0.0627,0.0660,
江戸川 (Edogawa),2015-08-10,00:01～01:00,0.0701,0.0632,0.0666,
